Temp
7 6 6 6 6 8 9 11 11 11 11 11 10 10 10 10 10 8 8 7 7 5 8 9 9 9 9 9 8 8 7 7 7 7 6 6 6 6 6 6 6 6 6 5 5 5 5 5 5
7 7 5 6 7 9 10 10 11 11 10 10 10 10 9 9 8 8 9 9 4 5 7 8 7 8 8 8 7 7 6 6 6 6 6 6 6 6 5 5 5 5 5 5 5 4 5 5 5
6 6 5 7 8 9 10 10 10 10 9 9 8 8 8 7 8 8 9 8 5 6 7 7 6 7 7 7 7 6 5 5 5 6 6 6 6 5 5 5 5 5 5 4 4 4 4 4 4
6 6 6 8 9 10 10 10 9 9 9 8 6 6 7 6 7 7 8 7 6 6 7 6 6 7 7 6 6 5 5 5 5 6 6 6 5 5 5 4 4 4 4 4 4 4 3 4 4
5 6 8 9 10 10 10 9 8 6 8 7 4 3 6 7 6 7 7 6 6 6 7 6 6 6 7 6 6 4 4 4 5 5 5 5 5 5 4 4 4 4 4 4 3 3 3 4 3
6 7 9 10 10 10 9 9 8 8 8 6 5 5 5 5 6 6 7 6 6 6 6 5 5 5 5 5 5 4 4 4 5 5 5 5 5 4 4 4 4 4 3 3 3 3 3 3 3
6 8 9 10 10 10 8 8 8 8 8 7 5 5 3 4 5 6 6 6 7 5 5 3 5 5 5 4 4 4 4 4 5 5 5 4 4 4 3 3 3 3 3 3 3 3 3 3 2
7 7 9 9 9 10 8 8 7 7 7 7 6 5 6 4 5 6 6 6 5 5 6 6 6 4 5 5 4 3 4 4 4 4 4 3 4 3 3 3 3 3 3 3 2 2 2 2 2
7 7 9 8 9 9 9 8 8 7 8 7 6 5 5 4 5 6 6 6 6 5 5 5 6 6 3 2 3 2 3 3 3 3 3 3 3 3 3 2 3 3 3 3 2 2 2 2 2
7 8 8 8 9 9 8 8 8 7 6 4 4 5 6 5 5 6 6 5 5 5 5 5 6 5 5 3 2 1 1 2 2 2 2 2 3 2 2 2 2 3 3 3 3 2 2 2 2
8 8 9 9 9 8 8 8 8 7 8 6 5 5 6 6 5 5 5 5 5 5 5 5 5 4 3 2 2 2 2 1 -0 1 2 1 2 2 3 2 3 3 3 2 2 2 1 2 1
8 8 8 8 8 8 8 8 7 8 5 6 6 6 6 6 5 5 4 5 4 4 4 4 4 3 2 2 2 1 1 -1 0 1 0 -0 -0 2 2 2 2 2 2 2 2 1 2 1 1
8 8 8 8 8 7 8 7 7 7 6 6 7 6 5 5 5 5 4 4 4 4 4 3 3 4 3 3 2 1 1 -0 -1 -0 -1 -1 0 1 1 2 2 2 2 2 2 2 1 1 1
8 8 8 7 7 7 7 8 7 6 6 5 5 6 6 5 5 5 4 3 3 3 3 3 3 3 3 2 2 1 1 0 -1 -2 -1 -1 0 1 1 1 1 2 2 2 2 1 1 1 0
8 7 8 7 7 7 6 8 7 6 3 4 4 3 5 5 5 2 2 2 3 3 3 3 2 2 2 1 1 0 -0 -1 -1 -1 -1 1 1 1 1 1 1 1 1 1 2 1 1 0 1
7 8 8 8 7 7 7 8 7 6 6 5 4 4 4 3 5 3 2 2 2 2 2 0 1 1 1 1 0 -0 -1 -1 -1 -0 0 1 1 0 1 1 1 1 1 1 1 1 1 1 1
8 8 9 8 7 8 8 8 7 5 5 5 5 4 4 4 5 5 3 1 1 1 1 1 1 1 1 0 -0 -0 -0 -0 -1 0 1 1 1 0 1 1 1 1 1 1 1 1 1 1 0
8 9 9 9 9 8 9 9 5 7 6 6 6 5 4 4 4 5 4 4 2 2 2 1 1 1 1 1 1 -0 -0 1 1 2 2 1 1 1 1 1 1 1 1 1 1 1 1 1 0
9 9 10 9 9 9 9 8 7 7 7 7 6 5 4 3 3 4 5 4 4 2 2 2 2 2 1 1 1 1 2 2 1 2 2 2 2 1 1 1 2 1 1 1 1 1 1 0 -0
9 9 9 9 9 9 9 9 9 8 7 7 7 5 4 4 3 4 4 3 4 3 3 3 3 2 2 2 2 2 2 2 2 2 2 2 2 1 1 1 2 1 1 1 1 0 0 -0 -0
8 9 9 9 9 9 9 9 9 8 7 7 6 6 6 5 5 5 5 5 4 4 4 4 4 2 3 3 3 3 2 2 3 3 3 2 2 2 2 1 2 1 0 1 1 0 0 -1 -0
8 9 9 9 9 9 8 8 9 9 8 7 7 7 7 7 6 5 6 5 5 4 5 5 4 4 4 4 4 4 3 4 3 3 3 3 2 2 2 1 1 1 -0 1 1 0 -0 -1 -1
8 8 8 8 8 9 8 8 10 9 9 8 8 7 6 7 6 7 6 6 6 5 5 5 4 4 3 3 2 4 3 3 3 3 3 2 2 2 2 1 1 1 0 -0 0 1 0 -1 -1
8 8 8 8 8 9 10 10 10 8 10 10 9 8 7 6 6 6 6 6 6 5 5 5 5 4 5 5 4 4 4 3 3 3 3 2 2 1 1 1 1 1 0 -0 -0 -0 -1 -0 -1
7 8 8 8 8 9 9 10 11 10 10 9 9 8 8 7 6 6 5 6 6 6 6 5 5 5 5 5 4 4 4 3 3 3 3 3 2 2 2 1 1 0 0 0 0 -1 -1 -1 -1
8 8 8 4 7 9 9 10 11 10 9 9 8 8 8 8 7 7 6 5 6 7 6 6 6 5 5 5 5 4 4 3 3 2 2 2 2 2 2 1 1 1 0 0 0 -0 -1 -0 -2
8 8 8 9 7 8 9 10 11 10 9 9 8 8 8 8 7 7 7 6 5 5 6 6 6 6 5 5 5 4 4 3 3 3 3 2 2 2 2 1 1 1 1 -0 0 -1 -1 -1 -2
8 8 8 9 8 7 10 10 8 9 9 8 8 8 8 7 7 7 7 7 6 5 5 6 6 6 5 5 5 5 4 4 3 3 3 2 2 2 2 2 1 1 0 -1 -1 -1 -2 -1 -1
8 8 8 9 9 8 8 9 8 8 9 8 8 8 7 7 7 7 7 7 6 6 5 5 5 5 5 5 5 5 4 4 3 3 3 2 2 2 2 1 1 0 -0 -1 -1 -1 -2 -3 -2
8 8 8 8 9 9 8 8 9 8 8 8 8 8 7 7 7 7 7 7 6 6 5 5 4 4 5 4 4 5 4 4 3 3 3 2 2 2 2 1 0 -0 -1 -2 -2 -2 -2 -3 -3
Height
3127 3126 3126 3125 3133 3123 3115 3112 3110 3105 3105 3103 3104 3104 3103 3106 3103 3112 3108 3106 3089 3080 3116 3118 3121 3123 3122 3123 3126 3132 3137 3140 3142 3145 3148 3150 3152 3154 3156 3158 3160 3161 3163 3164 3166 3166 3168 3169 3169
3125 3124 3125 3126 3128 3119 3112 3111 3110 3108 3104 3103 3103 3103 3105 3104 3099 3104 3111 3107 3097 3105 3114 3118 3118 3120 3120 3120 3123 3131 3135 3139 3142 3144 3147 3150 3152 3155 3157 3159 3161 3163 3164 3166 3167 3168 3168 3170 3170
3124 3124 3128 3125 3122 3116 3112 3111 3109 3110 3103 3102 3102 3103 3104 3100 3101 3103 3109 3106 3096 3110 3114 3116 3116 3119 3118 3120 3124 3129 3134 3138 3141 3144 3147 3150 3153 3155 3157 3159 3161 3163 3165 3167 3167 3169 3170 3171 3171
3124 3126 3126 3121 3116 3113 3111 3110 3108 3108 3104 3103 3107 3104 3103 3101 3103 3102 3103 3102 3106 3110 3114 3113 3118 3117 3118 3119 3124 3129 3133 3137 3141 3144 3147 3150 3154 3156 3158 3161 3163 3165 3167 3168 3169 3170 3171 3172 3172
3124 3125 3123 3119 3117 3113 3111 3107 3108 3104 3102 3103 3108 3094 3099 3100 3101 3104 3104 3103 3106 3107 3108 3112 3114 3115 3115 3117 3121 3126 3132 3137 3141 3144 3147 3150 3154 3157 3159 3161 3164 3166 3168 3169 3170 3171 3172 3173 3174
3126 3125 3121 3115 3114 3113 3110 3107 3111 3112 3108 3097 3098 3101 3099 3100 3098 3101 3100 3098 3102 3100 3103 3096 3109 3110 3110 3113 3117 3124 3130 3135 3140 3143 3147 3150 3153 3157 3159 3162 3165 3166 3167 3170 3171 3172 3172 3174 3174
3126 3124 3119 3115 3112 3111 3109 3104 3109 3111 3106 3098 3095 3098 3098 3101 3103 3103 3098 3097 3095 3100 3100 3096 3096 3097 3102 3108 3115 3123 3130 3135 3139 3143 3147 3151 3154 3157 3159 3162 3164 3165 3168 3170 3171 3172 3173 3174 3174
3126 3125 3120 3117 3112 3111 3108 3107 3105 3107 3102 3101 3101 3094 3094 3082 3101 3101 3094 3096 3096 3100 3100 3104 3101 3098 3084 3101 3111 3120 3128 3134 3139 3142 3146 3150 3153 3157 3160 3162 3164 3165 3168 3169 3171 3173 3173 3174 3173
3125 3124 3119 3118 3115 3112 3111 3108 3103 3104 3101 3102 3099 3095 3097 3095 3099 3096 3091 3091 3096 3098 3099 3100 3100 3097 3097 3103 3110 3119 3126 3132 3136 3141 3144 3149 3152 3155 3158 3161 3163 3165 3168 3169 3170 3172 3173 3172 3172
3124 3122 3118 3117 3115 3113 3111 3110 3102 3101 3093 3088 3087 3086 3090 3093 3095 3091 3089 3090 3092 3091 3095 3097 3098 3098 3100 3106 3108 3112 3120 3126 3134 3139 3143 3146 3152 3155 3157 3161 3162 3166 3166 3168 3170 3171 3170 3171 3172
3121 3119 3117 3115 3113 3112 3111 3110 3105 3103 3096 3092 3092 3091 3091 3087 3091 3092 3089 3088 3088 3088 3092 3095 3098 3098 3098 3100 3107 3114 3119 3120 3130 3139 3144 3146 3152 3155 3159 3161 3163 3165 3166 3168 3168 3169 3169 3168 3169
3119 3118 3116 3113 3111 3110 3109 3109 3107 3104 3096 3088 3091 3089 3087 3086 3090 3088 3086 3086 3086 3088 3090 3094 3096 3096 3089 3102 3107 3111 3117 3122 3130 3136 3139 3143 3149 3156 3158 3160 3162 3164 3165 3165 3167 3167 3166 3167 3168
3116 3116 3114 3112 3110 3107 3106 3108 3107 3105 3095 3090 3090 3086 3086 3083 3082 3083 3082 3080 3083 3086 3090 3094 3098 3097 3100 3101 3104 3109 3114 3120 3125 3131 3134 3145 3150 3157 3157 3159 3161 3163 3164 3164 3166 3165 3166 3166 3167
3115 3113 3112 3107 3106 3104 3104 3105 3102 3100 3099 3092 3091 3085 3084 3080 3078 3075 3075 3077 3078 3084 3088 3093 3095 3096 3099 3099 3105 3108 3110 3113 3120 3128 3139 3144 3151 3153 3155 3158 3160 3161 3163 3163 3163 3164 3165 3165 3165
3112 3110 3110 3107 3106 3099 3102 3103 3097 3094 3083 3091 3093 3089 3084 3080 3074 3070 3072 3076 3080 3085 3088 3092 3095 3096 3100 3102 3104 3104 3110 3115 3123 3134 3139 3146 3150 3152 3155 3158 3159 3160 3160 3161 3162 3163 3163 3162 3162
3109 3108 3105 3100 3101 3099 3101 3097 3093 3085 3085 3084 3092 3092 3089 3087 3082 3078 3077 3080 3083 3086 3090 3088 3095 3098 3100 3100 3102 3106 3112 3121 3128 3136 3143 3147 3148 3151 3153 3156 3157 3158 3158 3159 3160 3160 3159 3159 3159
3105 3102 3101 3098 3098 3096 3100 3096 3087 3088 3084 3089 3093 3091 3088 3087 3085 3085 3083 3083 3085 3088 3089 3092 3095 3096 3100 3104 3108 3114 3120 3125 3131 3137 3140 3143 3146 3149 3151 3153 3154 3156 3156 3156 3156 3157 3157 3157 3156
3103 3099 3099 3097 3099 3097 3095 3094 3093 3088 3084 3092 3090 3088 3087 3086 3086 3089 3089 3090 3090 3092 3094 3097 3098 3102 3106 3109 3113 3117 3123 3128 3131 3134 3139 3142 3144 3146 3149 3151 3152 3153 3153 3153 3153 3153 3154 3154 3154
3098 3098 3095 3094 3095 3095 3093 3092 3090 3091 3092 3091 3092 3094 3092 3090 3088 3088 3091 3093 3095 3096 3098 3099 3101 3105 3108 3112 3116 3118 3122 3126 3130 3133 3137 3139 3141 3144 3146 3148 3148 3150 3150 3151 3150 3150 3151 3150 3150
3097 3096 3094 3093 3093 3093 3092 3091 3091 3090 3090 3089 3089 3091 3091 3091 3091 3091 3091 3093 3096 3099 3100 3104 3106 3107 3112 3114 3117 3120 3124 3126 3130 3133 3135 3138 3139 3142 3144 3144 3145 3147 3146 3146 3147 3146 3145 3145 3145
3096 3095 3093 3094 3092 3091 3089 3088 3089 3088 3089 3090 3089 3090 3090 3091 3091 3092 3092 3093 3097 3098 3100 3104 3105 3109 3113 3115 3117 3120 3123 3125 3128 3130 3133 3135 3137 3139 3140 3140 3140 3143 3141 3141 3142 3141 3140 3139 3139
3093 3093 3092 3092 3093 3089 3089 3087 3084 3086 3088 3089 3090 3088 3089 3089 3091 3093 3093 3095 3096 3099 3102 3104 3105 3109 3112 3114 3117 3119 3121 3124 3126 3129 3131 3133 3135 3135 3136 3136 3136 3137 3137 3136 3137 3137 3135 3132 3128
3091 3091 3091 3091 3090 3087 3086 3088 3081 3082 3084 3085 3089 3087 3088 3089 3090 3090 3094 3095 3098 3099 3101 3104 3106 3108 3110 3113 3115 3117 3120 3123 3124 3126 3129 3130 3131 3132 3131 3132 3132 3132 3131 3129 3129 3129 3129 3126 3124
3089 3089 3089 3089 3087 3084 3080 3081 3078 3083 3081 3080 3084 3086 3086 3085 3090 3092 3092 3094 3096 3098 3100 3102 3104 3107 3109 3111 3114 3116 3118 3121 3122 3123 3124 3127 3128 3128 3127 3127 3127 3125 3124 3124 3120 3118 3119 3118 3118
3086 3087 3086 3086 3081 3079 3078 3078 3074 3076 3078 3081 3083 3082 3084 3085 3086 3087 3089 3091 3094 3096 3098 3101 3103 3106 3107 3109 3112 3114 3116 3118 3118 3118 3120 3121 3120 3121 3121 3119 3119 3120 3119 3117 3114 3110 3108 3111 3110
3081 3083 3082 3090 3080 3077 3079 3076 3074 3076 3076 3079 3081 3083 3084 3086 3086 3087 3088 3088 3091 3093 3096 3099 3101 3103 3105 3106 3108 3111 3112 3112 3114 3114 3114 3113 3113 3115 3115 3115 3114 3113 3111 3109 3105 3101 3100 3101 3102
3077 3078 3078 3078 3082 3078 3077 3074 3072 3074 3077 3078 3079 3081 3082 3083 3085 3086 3086 3087 3087 3089 3091 3095 3097 3099 3100 3102 3104 3105 3107 3108 3108 3109 3109 3108 3108 3110 3110 3109 3107 3105 3103 3100 3096 3093 3091 3091 3094
3070 3075 3076 3074 3075 3075 3070 3070 3073 3075 3074 3076 3077 3078 3079 3080 3080 3080 3083 3084 3085 3085 3086 3089 3092 3094 3096 3097 3098 3100 3102 3102 3102 3102 3104 3104 3102 3102 3101 3101 3099 3098 3096 3093 3088 3086 3086 3086 3086
3067 3068 3070 3071 3071 3072 3073 3072 3073 3074 3076 3076 3076 3075 3078 3078 3076 3076 3078 3082 3083 3083 3084 3083 3086 3089 3090 3090 3091 3094 3094 3095 3095 3096 3097 3097 3096 3095 3094 3092 3091 3090 3088 3086 3083 3079 3081 3079 3076
3062 3064 3066 3065 3067 3067 3068 3070 3068 3071 3072 3073 3073 3074 3074 3075 3075 3074 3075 3076 3080 3083 3084 3082 3083 3083 3084 3084 3082 3086 3085 3088 3089 3089 3090 3091 3090 3089 3088 3086 3084 3081 3079 3078 3077 3076 3073 3073 3070
Wind_Speed
7 5 5 1 9 14 22 21 17 14 14 14 19 18 15 21 32 21 29 33 49 7 12 21 23 24 24 23 23 22 20 18 15 12 10 11 15 17 17 16 16 16 16 18 19 19 17 15 14
3 1 5 6 17 24 18 9 12 11 13 20 20 28 29 27 26 26 33 45 46 18 13 23 27 28 27 26 26 25 22 19 15 12 10 14 17 17 18 17 17 18 18 19 18 18 17 16 16
2 4 7 15 20 27 17 10 9 13 10 14 19 16 14 15 23 33 34 21 17 12 20 25 29 30 28 27 26 24 22 19 16 13 11 15 17 19 18 18 19 19 18 18 18 17 16 15 14
2 6 10 11 16 17 15 13 13 10 21 27 21 18 18 13 24 24 21 20 18 23 17 24 26 26 26 25 25 25 23 20 16 13 12 16 17 18 19 19 19 17 17 16 17 15 14 13 13
5 4 15 21 19 22 10 12 18 13 21 24 7 12 16 19 17 22 19 14 16 23 20 22 27 26 27 26 27 26 23 20 17 13 14 17 18 18 19 19 18 16 16 15 14 13 13 12 13
8 13 19 19 14 12 14 16 12 11 16 14 16 20 17 10 11 16 19 16 16 24 21 26 27 29 32 32 31 28 25 22 18 16 16 18 20 20 20 19 17 16 15 13 12 11 11 10 11
8 13 20 20 17 4 3 12 10 15 21 30 28 19 6 12 8 15 14 13 19 18 17 24 26 30 40 34 31 29 26 22 20 17 20 22 22 23 21 19 16 14 13 11 10 9 7 7 10
11 14 18 18 20 11 9 12 14 13 12 21 8 10 17 18 6 10 14 11 11 12 8 9 19 16 29 35 33 32 28 24 21 21 23 25 20 21 19 17 15 14 11 10 7 4 3 4 8
11 14 14 14 14 11 6 11 21 24 10 7 16 13 12 18 7 10 11 10 10 14 14 13 12 11 29 27 34 33 31 26 25 27 28 26 24 23 21 17 15 12 11 7 5 2 2 6 8
8 14 11 13 14 14 12 13 20 21 18 24 16 9 16 15 7 10 13 11 13 15 14 14 16 13 26 29 31 38 39 33 28 29 32 30 27 25 21 18 14 12 8 4 2 1 5 5 6
10 16 17 16 16 14 13 11 16 16 24 20 9 17 19 20 10 9 13 12 10 11 9 12 15 21 32 27 31 21 40 40 35 34 33 29 28 19 19 16 12 8 6 4 1 4 6 10 10
11 13 15 16 16 17 15 13 14 11 15 21 19 16 17 16 13 9 12 14 13 13 14 13 16 18 33 21 33 29 26 38 38 39 36 28 27 24 18 14 10 9 6 2 3 6 9 9 5
14 15 14 13 14 14 15 15 14 13 12 20 23 16 16 16 19 17 13 11 14 13 14 15 17 30 26 27 40 35 37 43 46 47 45 34 24 20 16 13 10 8 5 5 5 8 8 7 5
15 13 15 19 9 13 12 13 15 8 15 14 10 16 17 18 22 23 13 11 8 11 7 15 17 29 22 32 34 36 34 37 51 49 35 25 21 19 16 13 11 9 8 7 7 9 9 7 6
16 19 17 19 20 15 13 17 18 23 11 5 9 5 16 21 25 8 10 9 9 9 14 18 19 20 24 20 22 22 22 28 38 32 25 25 25 20 16 14 12 10 9 8 11 11 11 8 8
18 18 19 25 9 5 9 18 20 13 15 15 3 2 10 11 23 14 8 7 11 11 13 12 16 17 17 15 17 23 26 35 33 28 29 29 20 19 16 13 12 11 11 13 13 13 12 10 12
14 21 18 8 14 11 13 15 20 8 10 9 6 7 11 4 11 15 21 11 8 7 8 10 15 26 33 36 36 34 30 28 27 28 27 23 21 18 14 14 14 14 15 16 15 14 12 12 15
9 15 12 10 8 11 13 10 7 8 6 3 8 5 8 9 3 4 8 15 19 23 27 24 27 24 22 20 20 22 27 26 25 22 19 19 19 17 17 17 17 16 19 18 17 14 14 14 16
17 16 17 8 7 9 13 10 6 7 6 9 12 12 11 5 7 3 3 6 11 15 15 19 19 18 18 18 16 19 18 18 17 17 18 18 18 18 20 21 19 19 20 19 17 17 17 17 17
13 14 16 12 7 6 9 12 8 8 12 7 8 11 15 13 13 6 5 6 5 10 15 15 17 17 15 15 14 15 16 16 16 19 19 19 20 20 20 22 21 21 22 22 19 19 20 21 19
11 14 17 13 9 12 15 15 8 10 10 11 12 9 10 10 5 6 6 5 10 12 12 14 14 16 15 15 15 15 16 17 19 18 19 19 19 20 21 23 24 22 25 25 23 24 23 23 23
14 11 17 14 13 13 7 14 18 16 14 12 17 15 9 7 7 9 8 10 10 13 14 12 11 12 15 14 16 17 16 15 15 15 15 17 19 21 23 24 27 27 26 29 27 28 26 26 31
16 11 11 13 15 17 11 16 2 9 18 18 16 18 16 9 12 10 12 11 12 12 12 13 15 17 15 15 15 16 16 16 17 17 15 18 20 22 25 27 28 26 27 29 32 32 29 29 31
16 16 14 14 17 15 18 11 6 8 13 17 15 19 19 19 15 14 12 13 13 14 15 16 17 17 18 17 21 18 17 18 20 20 21 19 19 24 23 31 27 30 34 35 31 36 33 32 31
17 15 12 9 11 8 5 11 7 7 11 6 5 16 17 20 19 19 20 20 18 19 19 19 19 20 21 18 16 18 19 20 23 25 25 21 23 23 21 18 24 32 36 37 41 38 38 35 33
19 19 9 6 4 4 9 8 6 10 6 4 6 10 10 14 22 24 24 27 25 23 23 23 23 23 23 22 19 16 18 20 20 22 22 24 31 26 29 28 31 36 39 42 43 48 41 36 35
18 25 23 13 14 8 11 14 8 7 3 5 5 6 9 12 17 24 29 28 31 28 26 26 25 24 25 24 23 21 20 22 23 24 24 23 22 23 26 30 36 39 40 45 45 34 41 40 36
25 16 21 18 5 10 11 14 14 9 6 6 6 6 6 10 15 14 24 27 31 31 30 26 27 26 26 27 27 27 25 27 28 27 26 26 28 31 33 33 33 33 40 43 39 36 31 35 39
24 22 17 20 20 8 5 4 12 8 3 6 6 7 5 4 6 7 17 22 28 29 30 31 28 28 31 33 34 31 31 32 34 32 30 31 33 32 33 31 29 30 32 29 35 36 32 38 33
25 24 23 18 15 16 15 17 6 6 7 9 9 10 10 9 7 8 7 10 23 25 27 31 29 36 34 35 37 33 37 35 33 34 32 30 31 32 32 32 32 35 28 34 27 34 27 31 31
Wind_Direction
295 296 288 29 257 250 259 264 296 283 291 280 268 254 243 261 262 262 269 278 243 144 231 200 200 202 201 196 189 181 171 166 162 153 140 138 139 139 136 133 128 124 123 118 114 110 106 99 91
315 182 346 272 253 268 285 306 291 302 286 279 267 261 253 278 269 267 273 276 267 262 234 215 194 202 198 191 184 177 171 168 164 158 148 147 146 144 141 137 132 129 125 120 115 110 104 95 86
75 61 266 248 258 264 297 305 292 295 298 281 289 281 260 293 273 262 260 266 269 205 228 213 198 195 191 187 182 175 173 171 168 164 156 155 152 149 145 140 136 131 128 122 116 112 104 89 80
157 323 278 258 268 286 287 305 306 281 300 288 262 259 247 250 264 271 284 256 244 245 227 210 207 204 195 188 185 178 175 174 173 168 165 162 157 151 147 141 137 133 128 122 118 112 97 83 74
339 287 262 265 288 294 295 279 332 295 306 316 270 246 245 234 251 263 262 258 233 231 228 209 202 204 200 192 184 179 176 176 176 175 171 165 159 154 150 144 139 137 132 125 120 111 90 77 73
260 266 278 290 307 288 283 299 309 319 320 330 301 313 288 231 231 223 241 245 236 228 217 197 195 199 194 188 183 178 177 180 177 180 172 167 162 158 153 147 144 140 132 123 117 106 85 78 63
274 288 284 291 302 266 341 273 310 312 308 304 334 343 350 244 241 228 249 256 253 225 274 222 171 200 201 185 179 178 179 179 181 179 170 167 161 161 156 157 153 137 137 125 116 98 87 68 49
274 280 284 305 309 297 337 297 318 307 306 321 331 321 356 350 309 261 267 264 227 216 236 212 283 229 181 180 174 177 179 179 179 174 169 167 170 168 165 158 156 141 146 135 120 103 57 40 31
269 275 287 311 281 330 314 313 300 307 302 296 294 290 324 330 298 275 270 262 249 244 260 239 267 274 228 202 183 178 178 177 169 168 170 172 168 175 168 165 156 153 164 136 121 93 13 15 5
281 276 281 295 302 298 305 306 304 320 308 301 269 357 337 338 283 275 275 260 249 247 248 235 256 258 223 209 185 180 175 173 170 173 173 172 180 174 169 173 158 177 153 156 161 352 354 342 344
265 283 296 294 302 299 293 307 297 307 308 322 358 321 333 328 329 263 252 257 266 272 256 253 271 264 216 214 197 216 204 189 172 179 175 173 177 168 183 182 176 176 171 181 332 343 340 335 349
263 284 290 296 296 293 280 291 305 310 299 306 313 321 350 1 357 285 262 251 247 243 247 262 253 249 197 224 198 188 192 168 178 181 175 168 173 191 185 183 185 185 189 216 301 327 339 326 325
271 274 289 295 298 296 270 275 285 289 279 293 314 322 336 348 349 339 271 260 251 252 247 245 233 228 230 230 208 194 184 177 183 188 184 173 176 195 189 192 198 203 221 250 288 327 312 303 291
275 293 279 271 291 273 270 276 274 268 265 282 307 305 320 328 336 329 243 235 249 230 238 267 235 215 234 223 189 206 217 218 198 191 166 168 193 193 197 202 212 221 235 262 299 307 291 285 279
271 273 276 264 274 270 264 287 279 272 271 157 259 290 327 342 345 359 225 211 240 250 263 236 231 219 203 219 210 202 203 209 204 166 167 184 192 191 204 214 222 235 254 274 291 290 284 282 286
275 272 267 278 276 270 243 279 286 325 182 190 262 285 312 349 36 35 145 212 187 183 176 185 189 196 224 213 176 160 167 146 141 160 178 189 197 202 208 224 234 249 259 268 284 287 288 294 291
260 267 265 210 265 274 263 296 309 301 174 125 254 305 315 337 67 45 66 87 194 166 184 189 146 132 126 123 124 131 140 152 177 190 190 194 201 205 217 231 241 252 264 269 282 280 290 289 285
270 278 292 288 240 278 276 304 301 330 69 226 229 293 297 307 7 85 87 81 92 109 112 116 126 130 135 136 145 160 171 178 182 188 190 202 209 214 229 236 252 253 260 269 278 278 281 280 280
284 293 287 314 282 262 287 296 238 187 211 215 180 178 210 216 259 283 148 106 119 121 128 137 135 136 142 153 173 173 175 182 193 201 204 212 222 223 233 240 245 254 262 268 272 268 271 272 279
272 271 274 292 302 294 292 284 238 207 222 228 237 191 220 230 219 241 250 185 190 159 153 155 152 153 165 176 187 189 193 201 208 217 217 222 230 233 241 249 253 255 264 268 272 266 270 270 276
252 256 271 273 284 270 294 305 219 205 223 207 221 244 237 235 221 227 199 174 186 181 181 191 168 178 187 190 190 196 202 211 216 224 220 232 236 241 244 250 257 256 263 269 274 269 268 271 273
248 260 270 273 279 274 297 266 232 221 211 217 217 245 245 206 236 204 210 188 188 179 175 173 178 185 190 195 195 204 208 219 226 236 233 239 244 248 251 253 259 263 270 270 275 268 266 270 276
250 280 274 274 270 282 246 265 149 202 218 209 213 230 242 222 214 229 201 196 188 190 185 187 195 198 201 212 204 220 221 226 234 245 245 248 254 258 258 258 264 268 274 277 278 267 267 265 271
249 262 266 263 261 263 268 226 133 241 238 207 214 214 224 235 237 225 222 211 209 206 210 207 211 218 217 221 221 236 233 240 246 253 259 260 267 273 271 263 265 264 273 277 273 267 262 268 267
241 228 242 240 240 244 258 253 228 201 183 189 180 214 211 227 240 244 241 232 224 222 222 225 227 233 238 245 237 243 250 248 253 256 264 265 266 268 282 288 286 287 285 283 281 276 262 270 267
215 213 208 193 298 277 264 254 214 140 151 200 223 214 209 221 234 241 236 237 241 236 233 234 237 239 244 250 253 251 253 256 252 260 274 274 279 276 280 280 281 285 286 286 279 266 276 265 271
210 221 235 244 259 269 225 250 231 165 194 215 222 214 232 232 224 231 241 236 239 246 240 237 242 245 246 251 252 249 249 256 260 260 269 274 289 284 276 275 279 282 285 286 268 289 268 271 266
235 232 227 236 251 249 268 262 331 216 204 175 184 169 255 247 234 225 226 235 236 245 259 251 241 244 248 249 250 250 257 257 259 263 267 268 279 283 287 291 290 295 298 291 279 283 279 271 267
219 233 235 236 230 240 269 148 156 123 238 195 194 242 219 254 277 225 207 217 238 244 249 252 262 251 246 247 251 251 248 249 257 265 267 273 277 286 292 293 290 289 296 303 296 275 281 279 278
224 224 231 242 236 234 218 252 175 299 261 259 231 238 254 236 247 262 235 221 213 224 237 248 255 262 259 251 250 252 252 254 261 269 275 275 276 282 286 285 289 291 300 292 297 298 287 279 285